Location: Unspecified
(0.0000°N, 0.0000°E)
Time: 00:38:11
(UTC+00:00)

STARLINK-1265 - Pass Details

Date: 18 May 2026
Orbit: 448 x 454 km, 53.2° (Epoch: 10 June)

Event Time Altitude Azimuth Distance (km) Brightness Sun altitude
Rises 18:51:56 0° 211° (SSW) 2,446 7.1 -13.0°
Reaches altitude 10° 18:54:05 10° 208° (SSW) 1,570 6.0 -13.5°
Maximum altitude 18:57:36 72° 124° (ESE) 471 3.0 -14.4°
Drops below altitude 10° 19:01:05 10° 39° (NE) 1,560 5.7 -15.2°
Sets 19:03:12 0° 37° (NE) 2,427 6.7 -15.7°
